Find Jilin-1 GaoFen 07A 03 xing

NORAD ID: 68692 Int'l Des: NNA 2026-080 Owner: CGSTL Country: CN Constellation: jilin-1 operational
LEOCIRCULARRETROGRADESSO

当前视图

正在加载3D地球...

关于 Jilin-1 GaoFen 07A 03 xing

正在加载描述...

即将过境

Passes for default location (London). Set your location on the main map for personalized predictions.

高度历史

Loading altitude history...

两行轨道根数

1 68692U 26080B 26150.82267642 .00007996 00000-0 51256-3 0 9991
2 68692 97.6604 226.4052 0017968 104.6557 255.6665 15.08655488 7041
Epoch: May 30, 2026 • Age: 12 hours

当前状态

高度 541.9 km
速度 7.60 km/s
星下点 79.28°N, 175.61°W
发射日期 Apr 14, 2026
运行时间 0.1 years
类型 other

技术详情

分类 Payload
质量 50.00 kg
干质量 50.00 kg
总质量 50.00 kg
长度 1.50 m
直径 1.00 m
跨度 1.50 m
形状 Box
制造商 CGSTL
平台类型 JL-1GF07
阶段状态 In Orbit
所有者/国家 CGSTL/CN

Most Searched